GPS BIIR-13 (PRN 02)

Last updated on Jan. 23, 2021, 7:30 a.m. UTC

1 28474U 04045A   21022.87619042 -.00000059  00000-0  00000-0 0  9997
2 28474  55.1091  43.9956 0205624 270.7830 271.1917  2.00572583118897
UTC
Height (km)
Latitude
Longitude
Inclination
Orbital Period
UTC large
Height (km)
Speed (km/s)
/
Latitude / Longitude
Inclination (degrees)
Orbital Period (minutes)
Azimuth
Elevation
Range (km)
Doppler Factor
iOS Compass Heading
iOS Angle

Next 30 passes for location: Hong Kong

Rise time Rise Azimuth (degrees) Set time Set Azimuth (degrees) Duration Max altitude (degrees)

No matching passes for this satellites